Waarnemingen

Advertentie
Mijn weer
Bale-Mulhouse, Frankrijk (7299): temperatuur & dauwpunt: 17.01.2018 04:00:00 - 23.01.2018 04:00:00 (CET)Bale-Mulhouse, Frankrijk (7299): temperatuur 5cm: 17.01.2018 04:00:00 - 23.01.2018 04:00:00 (CET)Bale-Mulhouse, Frankrijk (7299): temperatuur -20cm & temperatuur -100cm: 17.01.2018 04:00:00 - 23.01.2018 04:00:00 (CET)Bale-Mulhouse, Frankrijk (7299): windsnelheid & windstoten: 17.01.2018 04:00:00 - 23.01.2018 04:00:00 (CET)Bale-Mulhouse, Frankrijk (7299): windrichting: 17.01.2018 04:00:00 - 23.01.2018 04:00:00 (CET)Bale-Mulhouse, Frankrijk (7299): luchtdruk: 17.01.2018 04:00:00 - 23.01.2018 04:00:00 (CET)Bale-Mulhouse, Frankrijk (7299): zicht: 17.01.2018 04:00:00 - 23.01.2018 04:00:00 (CET)Bale-Mulhouse, Frankrijk (7299): Zonneschijnduur: 17.01.2018 04:00:00 - 23.01.2018 04:00:00 (CET)Bale-Mulhouse, Frankrijk (7299): neerslag: 17.01.2018 04:00:00 - 23.01.2018 04:00:00 (CET)
Datum & Tijd tt [°C] td [°C] tt 5cm [°C] tt -20cm [°C] tt -100cm [°C] ff [km/u] ff [kn] fx [km/u] fx [kn] dd ppp [hPa] vv [km] sd [min] rr [mm]
23.01.2018 04:00:00 7,4 4,9 6,5 6,9 6,3 9 5 17 9 ZW 1025,7 27 0 0,0
23.01.2018 03:00:00 7,9 4,7 7,4 6,9 6,3 11 6 25 14 NW 1025,0 60 0 0,0
23.01.2018 02:00:00 8,5 5,8 7,8 6,9 6,3 21 11 33 18 W 1023,5 59 0 0,0
23.01.2018 01:00:00 9,2 5,9 7,7 6,9 6,3 11 6 27 15 W 1022,4 60 0 0,0
23.01.2018 00:00:00 9,4 7,0 8,2 6,9 6,3 17 9 32 17 W 1021,7 40 0 0,0
22.01.2018 23:00:00 9,4 7,2 8,1 6,9 6,2 9 5 22 12 W 1020,5 40 0 0,0
22.01.2018 22:00:00 8,9 7,7 8,2 6,9 6,3 8 4 11 6 WZW 1019,3 7 0 0,0
22.01.2018 21:00:00 9,1 7,5 8,5 6,8 6,3 6 3 22 12 WNW 1017,9 20 0 0,0
22.01.2018 20:00:00 9,5 7,6 9,2 6,8 6,3 16 9 49 26 N 1016,7 20 0 0,0
22.01.2018 19:00:00 11,2 8,4 10,2 6,7 6,3 29 16 50 27 W 1014,4 15 0 0,0
22.01.2018 18:00:00 11,1 8,3 9,9 6,6 6,2 29 16 63 34 WZW 1012,5 10 0 0,0
22.01.2018 17:00:00 11,7 8,4 10,3 6,5 6,3 31 17 60 33 WZW 1011,5 10 0 0,0
22.01.2018 16:00:00 11,9 8,6 10,4 6,3 6,3 34 18 69 37 WZW 1010,4 10 0 0,2
22.01.2018 15:00:00 11,3 8,9 10,1 6,1 6,2 26 14 45 25 WZW 1009,6 9 0 1,0
22.01.2018 14:00:00 11,1 9,0 9,9 5,9 6,2 22 12 31 17 ZW 1009,6 10 0 2,2
22.01.2018 13:00:00 11,4 9,0 10,4 5,7 6,2 13 7 22 12 ZW 1010,4 20 0 0,0
22.01.2018 12:00:00 10,6 8,9 9,7 5,6 6,2 5 3 32 17 ZZW 1011,9 15 0 0,2
22.01.2018 11:00:00 10,6 8,5 9,2 5,5 6,2 16 9 32 18 WZW 1012,8 28 0 1,2
22.01.2018 10:00:00 10,5 8,3 9,2 5,4 6,2 26 14 47 25 WZW 1012,8 9 0 0,6
22.01.2018 09:00:00 11,1 7,6 9,2 5,3 6,2 11 6 29 16 ZW 1012,9 40 0 0,0
22.01.2018 08:00:00 10,5 7,6 9,3 5,2 6,2 11 6 32 17 WZW 1012,8 40 0 0,0
22.01.2018 07:00:00 10,3 7,7 9,1 5,1 6,2 17 9 42 23 WZW 1012,9 40 0 0,0
22.01.2018 06:00:00 10,0 7,9 4,3 5,1 6,2 25 13 45 24 WZW 1012,7 12 0 0,0
22.01.2018 05:00:00 4,3 3,4 3,9 5,2 6,2 8 4 19 10 O 1013,4 12 0 0,0
22.01.2018 04:00:00 4,0 3,1 3,5 5,2 6,2 11 6 17 9 OZO 1013,2 14 0 0,4
22.01.2018 03:00:00 3,6 2,6 3,2 5,2 6,2 5 3 29 16 ZZO 1013,5 11 0 1,0
22.01.2018 02:00:00 3,5 2,3 2,9 5,3 6,2 14 8 27 15 ZZO 1013,7 12 0 0,6
22.01.2018 01:00:00 3,0 1,8 2,6 5,4 6,2 11 6 26 14 ZO 1014,6 14 0 0,0
22.01.2018 00:00:00 3,0 1,7 2,5 5,4 6,2 16 9 24 13 ZO 1016,1 12 0 0,0
21.01.2018 23:00:00 3,0 1,4 2,5 5,5 6,2 16 8 24 13 OZO 1017,1 12 0 0,0
21.01.2018 22:00:00 3,0 1,5 2,6 5,6 6,2 13 7 44 24 OZO 1018,1 12 0 0,2
21.01.2018 21:00:00 3,3 1,7 2,8 5,6 6,2 12 7 16 9 OZO 1018,9 20 0 0,0
21.01.2018 20:00:00 3,5 1,4 2,8 5,6 6,2 5 3 7 4 ZZO 1019,7 15 0 0,2
21.01.2018 19:00:00 3,9 1,6 3,1 5,7 6,2 3 1 14 8 ZW 1019,8 15 0 0,4
21.01.2018 18:00:00 4,7 1,0 3,4 5,7 6,2 9 5 17 9 W 1019,9 12 0 0,2
21.01.2018 17:00:00 5,2 1,1 4,8 5,7 6,2 5 3 14 7 WZW 1019,8 60 0 0,0
21.01.2018 16:00:00 5,5 0,5 5,5 5,6 6,2 8 4 21 11 W 1019,5 60 0 0,0
21.01.2018 15:00:00 5,8 0,3 6,4 5,6 6,2 12 7 24 13 WZW 1019,1 60 0 0,0
21.01.2018 14:00:00 5,8 -1,1 6,6 5,5 6,2 9 5 15 8 W 1019,0 60 0 0,0
21.01.2018 13:00:00 5,5 0,3 6,2 5,4 6,2 8 4 15 8 NNW 1018,9 60 0 0,0
21.01.2018 12:00:00 5,1 0,5 4,9 5,4 6,2 8 4 21 11 NW 1018,9 60 0 0,0
21.01.2018 11:00:00 4,5 0,3 4,1 5,5 6,2 16 9 31 17 NNW 1018,4 60 0 0,0
21.01.2018 10:00:00 4,0 0,5 4,0 5,5 6,2 19 10 35 19 NNW 1017,3 60 0 0,0
21.01.2018 09:00:00 4,7 1,7 4,6 5,5 6,1 16 9 27 14 NNW 1015,8 60 0 0,0
21.01.2018 08:00:00 5,4 2,6 4,4 5,6 6,2 16 8 29 15 NNW 1014,0 60 0 0,0
21.01.2018 07:00:00 6,2 2,6 5,5 5,6 6,2 16 9 25 13 W 1012,5 60 0 0,0
21.01.2018 06:00:00 6,1 2,4 5,4 5,6 6,2 18 10 29 16 W 1011,3 60 0 0,0
21.01.2018 05:00:00 6,8 3,9 5,8 5,6 6,1 15 8 32 18 WNW 1009,7 60 0 0,0
21.01.2018 04:00:00 7,6 4,4 6,7 5,5 6,1 20 11 35 19 WNW 1008,4 60 0 0,0
21.01.2018 03:00:00 7,9 5,2 6,9 5,5 6,1 18 10 45 24 W 1006,8 60 0 0,0
21.01.2018 02:00:00 8,2 5,7 7,0 5,5 6,1 25 14 43 23 W 1004,9 60 0 0,0
21.01.2018 01:00:00 8,1 5,7 7,1 5,4 6,2 23 12 44 24 W 1003,4 60 0 0,0
21.01.2018 00:00:00 8,3 6,1 7,2 5,4 6,2 28 15 48 26 W 1002,1 8 0 0,2
20.01.2018 23:00:00 8,6 5,5 7,1 5,2 6,1 29 16 61 33 W 1000,4 5 0 0,0
20.01.2018 22:00:00 9,1 6,4 7,8 5,2 6,2 30 16 56 31 W 1000,4 21 0 1,4
20.01.2018 21:00:00 9,1 6,5 7,4 5,1 6,2 33 18 62 34 W 1000,2 17 0 0,2
20.01.2018 20:00:00 8,8 6,1 7,1 5,0 6,1 35 19 58 31 W 1000,3 37 0 0,0
20.01.2018 19:00:00 8,3 5,6 6,0 5,0 6,1 30 16 56 31 W 1000,1 36 0 0,0
20.01.2018 18:00:00 6,9 4,9 5,3 4,9 6,2 20 11 34 18 WZW 1000,2 7 0 0,8
20.01.2018 17:00:00 6,4 3,4 4,7 4,9 6,2 12 7 23 12 ZW 1000,8 12 0 0,0
20.01.2018 16:00:00 6,8 1,5 4,9 4,8 6,1 10 6 34 18 ZZW 1002,0 50 0 0,2
20.01.2018 15:00:00 7,2 0,2 6,0 4,7 6,2 7 4 31 17 ZZW 1003,6 50 0 0,0
20.01.2018 14:00:00 7,5 0,0 7,3 4,6 6,2 18 10 32 18 ZW 1005,3 50 0 0,0
20.01.2018 13:00:00 7,2 -0,1 7,1 4,4 6,2 9 5 23 13 Z 1007,2 50 0 0,0
20.01.2018 12:00:00 6,2 0,5 5,2 4,4 6,2 12 7 20 11 ZO 1009,9 30 0 0,0
20.01.2018 11:00:00 4,8 1,3 4,0 4,3 6,2 11 6 18 10 OZO 1012,4 30 0 0,0
20.01.2018 10:00:00 4,3 1,0 3,6 4,4 6,2 8 4 22 12 Z 1013,9 15 0 0,0
20.01.2018 09:00:00 4,0 0,9 2,8 4,4 6,2 14 8 31 17 ZZW 1014,7 20 0 0,0
20.01.2018 08:00:00 3,9 0,8 2,6 4,4 6,2 14 8 39 21 ZW 1015,0 20 0 0,0
20.01.2018 07:00:00 3,7 0,4 2,3 4,5 6,2 19 11 44 24 WZW 1015,2 20 0 0,0
20.01.2018 06:00:00 4,6 -0,6 2,9 4,6 6,2 18 10 31 17 ZW 1015,4 20 0 0,0
20.01.2018 05:00:00 3,9 -0,7 1,5 4,6 6,2 12 7 29 16 ZZW 1015,9 60 0 0,0
20.01.2018 04:00:00 2,7 -0,6 1,2 4,7 6,2 7 4 14 7 Z 1016,8 60 0 0,0
20.01.2018 03:00:00 2,3 -0,6 0,9 4,8 6,2 10 5 21 12 ZZO 1017,5 60 0 0,0
20.01.2018 02:00:00 3,4 -0,3 1,7 4,9 6,1 12 7 30 16 ZZW 1017,7 60 0 0,0
20.01.2018 01:00:00 3,6 0,5 2,3 5,0 6,2 16 9 29 16 WZW 1018,0 60 0 0,0
20.01.2018 00:00:00 3,5 0,5 2,1 5,1 6,1 16 8 40 22 W 1017,9 20 0 0,0
19.01.2018 23:00:00 3,6 0,6 2,1 5,2 6,1 16 9 36 19 W 1016,9 20 0 0,0
19.01.2018 22:00:00 3,6 0,6 2,3 5,2 6,1 20 11 43 23 WZW 1016,7 20 0 0,0
19.01.2018 21:00:00 3,8 0,8 2,5 5,3 6,1 22 12 46 25 W 1015,9 20 0 0,0
19.01.2018 20:00:00 3,3 0,9 2,6 5,4 6,1 26 14 48 26 WNW 1015,5 12 0 0,2
19.01.2018 19:00:00 4,8 1,3 2,8 5,4 6,1 13 7 35 19 ZW 1014,5 20 0 0,0
19.01.2018 18:00:00 4,9 1,6 2,3 5,5 6,1 10 5 18 10 ZZW 1013,9 20 0 0,0
19.01.2018 17:00:00 4,5 1,5 2,4 5,5 6,1 4 2 26 14 Z 1014,2 15 2 0,4
19.01.2018 16:00:00 5,7 1,6 4,9 5,4 6,1 14 8 27 15 WZW 1014,1 10 0 0,0
19.01.2018 15:00:00 5,7 2,5 4,4 5,3 6,1 5 3 41 22 Z 1014,0 20 0 0,2
19.01.2018 14:00:00 6,4 1,9 4,7 5,2 6,1 15 8 29 16 W 1014,5 15 1 0,0
19.01.2018 13:00:00 4,8 0,9 3,8 5,2 6,1 21 12 49 27 W 1015,6 8 11 0,2
19.01.2018 12:00:00 6,2 1,3 5,5 5,1 6,1 16 9 31 17 WZW 1015,9 30 0 0,0
19.01.2018 11:00:00 5,7 1,2 4,8 5,1 6,1 4 2 19 10 ZZO 1016,5 20 23 0,0
19.01.2018 10:00:00 4,3 1,3 3,0 5,2 6,1 16 9 46 25 WNW 1015,8 18 22 0,4
19.01.2018 09:00:00 4,9 1,7 3,1 5,3 6,1 19 11 47 25 W 1015,0 15 1 0,2
19.01.2018 08:00:00 4,6 1,4 3,1 5,4 6,1 24 13 37 20 W 1014,4 10 0 0,0
19.01.2018 07:00:00 4,6 1,4 3,3 5,4 6,1 16 9 41 22 W 1013,6 10 0 0,2
19.01.2018 06:00:00 5,4 2,9 4,4 5,4 6,1 27 14 38 21 W 1012,4 5 0 0,0
19.01.2018 05:00:00 5,5 3,0 4,6 5,5 6,1 19 11 52 28 W 1011,3 17 0 0,4
19.01.2018 04:00:00 7,2 3,8 5,8 5,4 6,1 28 15 48 26 WZW 1009,9 10 0 0,0
19.01.2018 03:00:00 7,5 4,3 5,7 5,5 6,1 28 15 47 25 W 1009,6 10 0 0,0
19.01.2018 02:00:00 7,0 4,1 5,6 5,5 6,1 28 15 50 27 W 1009,5 10 0 0,2
19.01.2018 01:00:00 7,4 3,8 5,8 5,4 6,1 31 17 56 31 W 1009,2 10 0 0,8
19.01.2018 00:00:00 7,0 5,3 6,1 5,4 6,1 15 8 25 13 WZW 1008,7 8 0 1,4
18.01.2018 23:00:00 6,8 5,3 6,0 5,3 6,1 9 5 23 12 W 1008,1 4,0 0 4,1
18.01.2018 22:00:00 6,8 4,9 5,8 5,3 6,1 5 3 27 15 ZW 1008,5 4,0 0 1,0
18.01.2018 21:00:00 7,4 6,0 6,8 5,2 6,1 16 9 51 28 NNW 1008,6 4,0 0 3,0
18.01.2018 20:00:00 9,3 5,1 7,2 5,2 6,1 31 17 76 41 WZW 1007,4 8 0 0,2
18.01.2018 19:00:00 9,1 4,1 7,9 5,2 6,1 37 20 82 44 WZW 1006,6 10 0 0,0
18.01.2018 18:00:00 8,8 3,2 7,8 5,1 6,1 41 22 80 43 ZW 1006,9 10 0 0,0
18.01.2018 17:00:00 8,9 3,1 8,1 5,0 6,1 45 24 82 44 WZW 1006,9 30 6 0,0
18.01.2018 16:00:00 9,4 4,0 9,1 4,8 6,1 41 22 72 39 WZW 1007,7 30 53 0,0
18.01.2018 15:00:00 10,3 4,2 10,7 4,7 6,1 35 19 72 39 WZW 1008,1 10 60 0,0
18.01.2018 14:00:00 10,5 4,0 10,4 4,5 6,1 36 20 87 47 WZW 1008,5 30 60 0,0
18.01.2018 13:00:00 9,9 3,8 9,0 4,3 6,1 40 22 81 44 WZW 1009,2 30 20 0,0
18.01.2018 12:00:00 8,9 3,1 8,0 4,2 6,1 35 19 69 37 WZW 1010,4 30 0 0,0
18.01.2018 11:00:00 8,0 3,1 5,9 4,1 6,1 28 15 59 32 WZW 1011,3 10 0 0,0
18.01.2018 10:00:00 7,3 2,6 4,9 4,1 6,1 39 21 74 40 WZW 1011,3 20 0 0,4
18.01.2018 09:00:00 6,8 2,5 4,4 4,0 6,1 37 20 67 36 WZW 1011,3 20 0 0,2
18.01.2018 08:00:00 6,2 2,3 3,8 4,0 6,1 34 18 61 33 ZW 1011,1 10 0 1,2
18.01.2018 07:00:00 5,3 1,8 3,5 4,0 6,2 22 12 41 22 ZZW 1012,4 10 0 0,8
18.01.2018 06:00:00 4,9 1,4 3,3 3,9 6,1 22 12 50 27 ZZW 1013,7 10 0 0,6
18.01.2018 05:00:00 4,5 1,2 3,2 4,0 6,2 18 10 46 25 ZZW 1014,9 16 0 0,4
18.01.2018 04:00:00 4,8 0,6 3,2 4,0 6,2 16 9 39 21 ZZW 1015,8 10 0 0,2
18.01.2018 03:00:00 5,0 0,0 3,3 4,0 6,2 26 14 52 28 ZW 1016,7 57 0 0,0
18.01.2018 02:00:00 5,1 -0,1 3,1 4,0 6,2 22 12 48 26 ZW 1017,8 10 0 0,2
18.01.2018 01:00:00 4,7 0,1 2,3 4,0 6,2 24 13 37 20 ZW 1018,0 10 0 0,0
18.01.2018 00:00:00 3,1 0,5 1,5 4,0 6,2 15 8 47 25 ZW 1018,7 10 0 0,0
17.01.2018 23:00:00 3,1 0,0 1,4 4,1 6,2 15 8 46 25 WZW 1018,4 40 0 0,2
17.01.2018 22:00:00 4,4 -1,8 2,7 4,1 6,2 26 14 47 25 WZW 1017,9 60 0 0,0
17.01.2018 21:00:00 4,2 -1,6 2,5 4,2 6,2 27 14 48 26 WZW 1018,0 60 0 0,0
17.01.2018 20:00:00 4,3 -1,5 2,3 4,3 6,2 35 19 58 31 W 1017,3 10 0 0,0
17.01.2018 19:00:00 4,2 -1,2 1,5 4,3 6,2 29 16 54 29 W 1016,7 12 0 0,4
17.01.2018 18:00:00 3,3 -0,2 1,2 4,3 6,2 14 8 44 24 WZW 1016,7 50 0 0,6
17.01.2018 17:00:00 3,6 -0,2 2,1 4,3 6,2 29 15 53 29 WZW 1016,0 8 0 0,2
17.01.2018 16:00:00 4,5 -1,7 4,1 4,3 6,2 35 19 63 34 W 1014,6 10 8 0,0
17.01.2018 15:00:00 4,3 -0,5 3,9 4,3 6,2 23 12 54 29 W 1013,9 50 14 0,0
17.01.2018 14:00:00 3,8 -0,4 2,8 4,4 6,2 26 14 63 34 W 1014,1 10 19 0,0
17.01.2018 13:00:00 3,8 -0,2 0,0 4,5 6,2 31 17 53 29 W 1013,0 10 21 1,2
17.01.2018 12:00:00 0,2 -0,7 0,0 4,5 6,2 25 13 57 31 NW 1013,2 1,0 0 0,2
17.01.2018 11:00:00 3,7 0,0 1,4 4,6 6,2 35 19 72 39 W 1011,0 20 1 0,2
17.01.2018 10:00:00 3,5 -0,7 0,5 4,7 6,1 35 19 69 38 W 1009,8 8 0 1,0
17.01.2018 09:00:00 4,0 -0,8 3,0 4,7 6,2 41 22 71 39 W 1008,1 30 0 0,0
17.01.2018 08:00:00 4,2 -0,8 3,3 4,8 6,2 34 18 59 32 W 1006,7 10 0 0,0
17.01.2018 07:00:00 4,1 -0,3 3,2 4,9 6,1 32 17 63 34 WZW 1006,0 30 0 0,0
17.01.2018 06:00:00 4,2 0,3 2,9 5,0 6,1 31 17 69 37 WZW 1005,1 10 0 0,0
17.01.2018 05:00:00 4,1 1,0 2,3 5,1 6,2 35 19 63 34 WZW 1004,1 10 0 0,0
17.01.2018 04:00:00 3,3 1,2 2,1 5,2 6,1 35 19 52 28 WZW 1003,5 10 0 1,0

tt = temperatuur
td = dauwpunt
tt 5cm = temperatuur 5cm
tt -20cm = temperatuur -20cm
tt -100cm = temperatuur -100cm
ff = windsnelheid
fx = windstoten
dd = windrichting
ppp = luchtdruk
vv = zicht
sd = Zonneschijnduur
rr = neerslag

Weerstations in de omgeving